Location: Laan Hart van Zuid
(52.2563°N, 6.7904°E)
Time: 10:35:28
(UTC+02:00)

ISS - Pass Details

Date: 25 May 2024
Orbit: 411 x 419 km, 51.6° (Epoch: 29 May)

Event Time Altitude Azimuth Distance (km) Brightness Sun altitude
Rises 20:49:07 0° 279° (W) 2,371 1.7 5.3°
Reaches altitude 10° 20:51:13 10° 276° (W) 1,505 0.6 5.0°
Maximum altitude 20:54:34 63° 195° (SSW) 472 -3.5 4.5°
Drops below altitude 10° 20:57:54 10° 113° (ESE) 1,497 -1.6 4.1°
Enters shadow 21:01:01 -4° 110° (ESE) 2,778 -0.3 3.7°
Exits shadow 21:36:40 -78° 102° (ESE) 12,890 3.6 -0.8°
